Location: Altmatt
(47.1333°N, 8.7000°E)
Time: 17:54:35
(UTC+00:00)

Lacrosse 5 rocket - Pass Details

Date: 13 July 2020
Orbit: 465 x 632 km, 57.0° (Epoch: 12 August)

Event Time Altitude Azimuth Distance (km) Brightness Sun altitude
Rises 20:29:38 0° 307° (NW) 2,778 6.9 -10.0°
Reaches altitude 10° 20:32:07 10° 317° (NW) 1,847 5.6 -10.3°
Maximum altitude 20:35:54 33° 22° (NNE) 925 2.7 -10.7°
Drops below altitude 10° 20:39:30 10° 88° (E) 1,747 3.5 -11.1°
Enters shadow 20:40:11 - 92° (E) 1,993 3.8 -11.2°
